Weather History for Joplin, MO

Change the Weather History Date:

Sunday, January 27, 2013

  Actual Average Record
Temperature  
Mean Temperature 54 °F 36 °F  
Max Temperature 62 °F 46 °F 70 °F (1970)
Min Temperature 45 °F 25 °F -5 °F (1963)
Degree Days  
Heating Degree Days 11 29  
Month to date heating degree days 773 809  
Since 1 July heating degree days 2270 2426  
Cooling Degree Days 0 0  
Month to date cooling degree days 0 0  
Year to date cooling degree days 0 0  
Growing Degree Days 4 (Base 50)    
Moisture  
Dew Point 45 °F    
Average Humidity 58    
Maximum Humidity 83    
Minimum Humidity 32    
Precipitation  
Precipitation T in 0.06 in 0.70 in (1968)
Month to date precipitation 0.86 1.76  
Year to date precipitation 0.86 1.76  
Sea Level Pressure  
Sea Level Pressure 29.97 in    
Wind  
Wind Speed 17 mph (South)    
Max Wind Speed 31 mph    
Max Gust Speed 38 mph    
Visibility 10 miles    
Events Rain    
T = Trace of Precipitation, MM = Missing Value Source: NWS Daily Summary

Daily Weather History Graph

Daily Weather History Graph

Search for Another Location

Airport:

Trip Planner

Search our weather history database for the weather conditions in past years. The results will help you decide how hot, cold, wet, or windy it might be!

Date:

Astronomy

Jan. 27, 2013 Rise Set
Actual Time 7:24 AM CST 5:37 PM CST
Civil Twilight 6:56 AM CST 6:05 PM CST
Nautical Twilight 6:25 AM CST 6:36 PM CST
Astronomical Twilight 5:54 AM CST 7:07 PM CST
Moon 6:30 PM CST (1/27) 7:19 AM CST (1/27)
Length of Visible Light 11h 08m
Length of Day
10h 13m
Full, 100% of the Moon is Illuminated
Jan 27
Full
Feb 3
Last Quarter
Feb 10
New
Feb 17
First Quarter
Feb 25
Full

Hourly Weather History & Observations

Time (CST) Temp. Windchill Dew Point Humidity Pressure Visibility Wind Dir Wind Speed Gust Speed Precip Events Conditions
12:06 AM 48.2 °F - 23.0 °F 37% 30.11 in 10.0 mi SSE 12.7 mph - 0.00 in Rain Light Rain
12:53 AM 48.0 °F - 24.1 °F 39% 30.09 in 10.0 mi SSE 11.5 mph - 0.00 in Rain Light Rain
1:13 AM 48.2 °F - 26.6 °F 43% 30.09 in 10.0 mi SSE 11.5 mph - 0.00 in   Overcast
1:53 AM 46.9 °F - 28.9 °F 50% 30.11 in 10.0 mi SSE 8.1 mph - 0.00 in   Overcast
2:04 AM 46.4 °F 41.9 °F 28.4 °F 50% 30.11 in 10.0 mi SSE 9.2 mph - N/A   Overcast
2:53 AM 46.0 °F 41.4 °F 33.1 °F 61% 30.08 in 10.0 mi SE 9.2 mph - 0.00 in Rain Light Rain
3:06 AM 46.4 °F 41.5 °F 33.8 °F 62% 30.06 in 10.0 mi ESE 10.4 mph - 0.00 in Rain Light Rain
3:53 AM 46.0 °F 41.0 °F 36.0 °F 68% 30.02 in 10.0 mi SE 10.4 mph 20.7 mph 0.00 in   Overcast
4:53 AM 46.9 °F - 37.9 °F 71% 30.03 in 10.0 mi SE 10.4 mph - N/A   Overcast
5:53 AM 48.0 °F - 39.9 °F 74% 30.02 in 10.0 mi SE 5.8 mph - N/A   Overcast
6:53 AM 48.9 °F - 42.1 °F 77% 30.02 in 10.0 mi South 9.2 mph 19.6 mph 0.00 in   Overcast
7:53 AM 51.1 °F - 45.0 °F 80% 30.00 in 10.0 mi SSE 17.3 mph 29.9 mph N/A   Overcast
8:53 AM 52.0 °F - 46.9 °F 83% 30.00 in 10.0 mi South 13.8 mph 26.5 mph N/A   Mostly Cloudy
8:55 AM 51.8 °F - 46.4 °F 82% 30.00 in 10.0 mi South 15.0 mph - N/A   Mostly Cloudy
8:58 AM 53.6 °F - 46.4 °F 77% 30.00 in 10.0 mi South 19.6 mph 27.6 mph N/A   Mostly Cloudy
9:53 AM 54.0 °F - 48.9 °F 83% 29.99 in 10.0 mi South 21.9 mph - N/A   Mostly Cloudy
10:04 AM 55.4 °F - 48.2 °F 77% 29.99 in 10.0 mi South 19.6 mph 29.9 mph N/A   Mostly Cloudy
10:43 AM 55.4 °F - 50.0 °F 82% 29.99 in 10.0 mi South 24.2 mph 33.4 mph N/A   Mostly Cloudy
10:53 AM 55.9 °F - 50.0 °F 80% 29.99 in 10.0 mi SSW 20.7 mph 33.4 mph N/A   Mostly Cloudy
11:53 AM 57.0 °F - 50.0 °F 77% 29.95 in 10.0 mi South 24.2 mph 31.1 mph N/A   Overcast
12:00 PM 57.2 °F - 50.0 °F 77% 29.95 in 10.0 mi South 25.3 mph 34.5 mph N/A   Overcast
12:53 PM 57.0 °F - 51.1 °F 81% 29.93 in 10.0 mi SSW 20.7 mph 33.4 mph 0.00 in Rain Light Rain
1:53 PM 57.9 °F - 51.1 °F 78% 29.90 in 10.0 mi South 28.8 mph 38.0 mph 0.00 in   Mostly Cloudy
2:53 PM 62.1 °F - 51.1 °F 67% 29.88 in 10.0 mi South 21.9 mph 33.4 mph N/A   Mostly Cloudy
2:59 PM 60.8 °F - 51.8 °F 72% 29.88 in 10.0 mi South 26.5 mph 33.4 mph N/A   Scattered Clouds
3:53 PM 61.0 °F - 51.1 °F 70% 29.87 in 10.0 mi South 20.7 mph 32.2 mph N/A   Mostly Cloudy
4:09 PM 62.6 °F - 51.8 °F 68% 29.86 in 10.0 mi South 19.6 mph 31.1 mph N/A   Scattered Clouds
4:53 PM 59.0 °F - 51.1 °F 75% 29.87 in 10.0 mi South 16.1 mph 24.2 mph N/A   Mostly Cloudy
5:53 PM 59.0 °F - 52.0 °F 78% 29.88 in 10.0 mi South 20.7 mph 28.8 mph N/A   Overcast
6:53 PM 59.0 °F - 52.0 °F 78% 29.88 in 10.0 mi South 17.3 mph 28.8 mph N/A   Overcast
7:53 PM 59.0 °F - 53.1 °F 81% 29.88 in 10.0 mi South 19.6 mph - N/A   Mostly Cloudy
8:53 PM 60.1 °F - 54.0 °F 80% 29.90 in 10.0 mi SSW 15.0 mph 26.5 mph N/A   Overcast
9:53 PM 60.1 °F - 54.0 °F 80% 29.89 in 10.0 mi South 19.6 mph 26.5 mph N/A   Overcast
10:21 PM 60.8 °F - 53.6 °F 77% 29.89 in 10.0 mi South 21.9 mph 26.5 mph N/A   Overcast
10:53 PM 60.1 °F - 54.0 °F 80% 29.89 in 10.0 mi South 18.4 mph - N/A   Partly Cloudy
11:53 PM 60.1 °F - 55.0 °F 83% 29.89 in 10.0 mi South 17.3 mph 28.8 mph N/A   Clear